Location: ???????
(55.4362°N, 38.1183°E)
Time: 11:26:16
(UTC+00:00)

deb Delta 139 - Pass Details

Date: 05 February 2022
Orbit: 790 x 1093 km, 98.7° (Epoch: 23 May)

Event Time Altitude Azimuth Distance (km) Brightness Sun altitude
Rises 15:33:54 0° 196° (SSW) 3,402 ? -11.9°
Reaches altitude 10° 15:36:27 10° 207° (SSW) 2,511 ? -12.2°
Maximum altitude 15:41:23 31° 269° (W) 1,538 ? -12.9°
Drops below altitude 10° 15:46:42 10° 330° (NNW) 2,706 ? -13.7°
Sets 15:49:34 0° 341° (NNW) 3,708 ? -14.1°
